Location: Launois
(49.6535°N, 4.5395°E)
Time: 14:49:17
(UTC+00:00)

Nimbus 7 Rocket - Pass Details

Date: 23 May 2024
Orbit: 922 x 963 km, 99.4° (Epoch: 18 June)

Event Time Altitude Azimuth Distance (km) Brightness Sun altitude
Rises 00:25:11 0° 16° (NNE) 3,621 9.2 -19.0°
Reaches altitude 10° 00:27:38 10° 19° (NNE) 2,678 8.0 -18.9°
Maximum altitude 00:33:39 75° 105° (ESE) 991 4.5 -18.7°
Enters shadow 00:36:45 31° 185° (S) 1,627 5.1 -18.5°
